When you browse on this site, cookies collect data to enhance your experience and personalize the content and advertising you see.
Visit our Privacy Policy to learn more. By continuing to use the site, you agree to this use of cookies and data.
  • In Romania
  • List of Countries
  • For 7 days
  • Water Temperature
  • Weather Map
  • Weather Widgets
  • user-avatar
    Login

    Hourly Weather Badahos

    Today, 11 November, Monday

    Time Temperature Precipitation Wind Pressure Humidity
    00:00 +12°C° 0 mm 3 mps 749 mmHg 87%
    01:00 +12°C° 0 mm 3 mps 748 mmHg 88%
    02:00 +13°C° 0 mm 2 mps 748 mmHg 89%
    03:00 +13°C° 0 mm 2 mps 748 mmHg 90%
    04:00 +13°C° 0 mm 2 mps 747 mmHg 92%
    05:00 +14°C° 0 mm 2 mps 747 mmHg 93%
    06:00 +12°C° 0 mm 3 mps 748 mmHg 93%
    07:00 +13°C° 0 mm 3 mps 748 mmHg 90%
    08:00 +14°C° 0 mm 3 mps 748 mmHg 87%
    09:00 +14°C° 0 mm 3 mps 748 mmHg 84%
    10:00 +17°C° 0 mm 4 mps 747 mmHg 78%
    11:00 +17°C° 0 mm 5 mps 747 mmHg 72%
    12:00 +19°C° 0 mm 5 mps 747 mmHg 67%
    13:00 +19°C° 0 mm 5 mps 746 mmHg 67%
    14:00 +19°C° 0 mm 5 mps 746 mmHg 67%
    15:00 +19°C° 0 mm 6 mps 745 mmHg 67%
    16:00 +17°C° 0 mm 5 mps 745 mmHg 71%
    17:00 +15°C° 0 mm 5 mps 745 mmHg 76%
    18:00 +14°C° 0 mm 4 mps 745 mmHg 81%
    19:00 +13°C° 0 mm 3 mps 746 mmHg 83%
    20:00 +12°C° 0 mm 3 mps 746 mmHg 85%
    21:00 +12°C° 0 mm 2 mps 746 mmHg 87%
    22:00 +12°C° 0 mm 2 mps 746 mmHg 85%
    23:00 +12°C° 0 mm 2 mps 747 mmHg 84%

    Tomorrow, 12 November, Tuesday

    Time Temperature Precipitation Wind Pressure Humidity
    00:00 +10°C° 0 mm 2 mps 747 mmHg 82%
    01:00 +10°C° 0 mm 2 mps 747 mmHg 81%
    02:00 +10°C° 0 mm 2 mps 746 mmHg 80%
    03:00 +9°C° 0 mm 2 mps 746 mmHg 79%
    04:00 +9°C° 0 mm 2 mps 746 mmHg 79%
    05:00 +9°C° 0 mm 2 mps 746 mmHg 80%
    06:00 +8°C° 0 mm 2 mps 746 mmHg 81%
    07:00 +9°C° 0 mm 2 mps 746 mmHg 77%
    08:00 +10°C° 0 mm 2 mps 746 mmHg 72%
    09:00 +11°C° 0 mm 3 mps 747 mmHg 68%
    10:00 +13°C° 0 mm 3 mps 747 mmHg 59%
    11:00 +14°C° 0 mm 4 mps 747 mmHg 51%
    12:00 +17°C° 0 mm 4 mps 747 mmHg 42%
    13:00 +17°C° 0 mm 4 mps 746 mmHg 43%
    14:00 +18°C° 0 mm 4 mps 746 mmHg 43%
    15:00 +17°C° 0 mm 5 mps 745 mmHg 44%
    16:00 +17°C° 0 mm 4 mps 745 mmHg 52%
    17:00 +14°C° 0 mm 4 mps 745 mmHg 59%
    18:00 +13°C° 0 mm 4 mps 745 mmHg 66%
    19:00 +12°C° 0 mm 4 mps 745 mmHg 72%
    20:00 +12°C° 0 mm 4 mps 745 mmHg 78%
    21:00 +11°C° 0 mm 4 mps 745 mmHg 84%
    22:00 +11°C° 0 mm 4 mps 745 mmHg 87%
    23:00 +11°C° 0 mm 4 mps 745 mmHg 90%

    Day after tomorrow, 13 November, Wednesday

    Time Temperature Precipitation Wind Pressure Humidity
    00:00 +10°C° 0 mm 5 mps 745 mmHg 93%
    01:00 +12°C° 0 mm 5 mps 744 mmHg 93%
    02:00 +12°C° 0 mm 5 mps 744 mmHg 92%
    03:00 +13°C° 0 mm 5 mps 743 mmHg 92%
    04:00 +13°C° 0.1 mm 5 mps 743 mmHg 92%
    05:00 +13°C° 0.1 mm 5 mps 743 mmHg 91%
    06:00 +13°C° 0.1 mm 5 mps 743 mmHg 91%
    07:00 +14°C° 0.1 mm 5 mps 743 mmHg 86%
    08:00 +15°C° 0.1 mm 5 mps 743 mmHg 81%
    09:00 +15°C° 0.1 mm 5 mps 743 mmHg 77%
    10:00 +16°C° 0 mm 5 mps 743 mmHg 71%
    11:00 +17°C° 0 mm 6 mps 743 mmHg 64%
    12:00 +20°C° 0 mm 6 mps 744 mmHg 58%
    13:00 +20°C° 0 mm 6 mps 743 mmHg 58%
    14:00 +20°C° 0 mm 6 mps 743 mmHg 58%
    15:00 +20°C° 0 mm 6 mps 743 mmHg 58%
    16:00 +17°C° 0 mm 6 mps 743 mmHg 61%
    17:00 +16°C° 0 mm 5 mps 743 mmHg 64%
    18:00 +14°C° 0 mm 4 mps 744 mmHg 67%
    19:00 +13°C° 0 mm 5 mps 744 mmHg 70%
    20:00 +12°C° 0 mm 5 mps 744 mmHg 73%
    21:00 +10°C° 0 mm 5 mps 745 mmHg 76%
    22:00 +10°C° 0 mm 5 mps 744 mmHg 77%
    23:00 +10°C° 0 mm 4 mps 744 mmHg 78%

    14 November, Thursday

    Time Temperature Precipitation Wind Pressure Humidity
    00:00 +10°C° 0 mm 4 mps 744 mmHg 79%
    01:00 +10°C° 0 mm 4 mps 744 mmHg 81%
    02:00 +8°C° 0 mm 4 mps 743 mmHg 83%
    03:00 +8°C° 0 mm 4 mps 743 mmHg 85%
    04:00 +8°C° 0 mm 4 mps 742 mmHg 85%
    05:00 +9°C° 0 mm 5 mps 742 mmHg 84%
    06:00 +9°C° 0 mm 6 mps 741 mmHg 83%
    07:00 +9°C° 0.2 mm 6 mps 742 mmHg 80%
    08:00 +9°C° 0.2 mm 6 mps 742 mmHg 77%
    09:00 +9°C° 0.2 mm 7 mps 742 mmHg 74%
    10:00 +10°C° 0.1 mm 7 mps 742 mmHg 67%
    11:00 +10°C° 0.1 mm 7 mps 742 mmHg 60%
    12:00 +11°C° 0.1 mm 8 mps 742 mmHg 53%
    13:00 +11°C° 0.1 mm 8 mps 741 mmHg 57%
    14:00 +10°C° 0.1 mm 8 mps 741 mmHg 61%
    15:00 +9°C° 0.1 mm 7 mps 740 mmHg 65%
    16:00 +9°C° 0 mm 6 mps 740 mmHg 67%
    17:00 +9°C° 0 mm 5 mps 740 mmHg 69%
    18:00 +8°C° 0 mm 4 mps 741 mmHg 71%
    19:00 +8°C° 0 mm 4 mps 741 mmHg 74%
    20:00 +7°C° 0 mm 4 mps 741 mmHg 77%
    21:00 +7°C° 0 mm 4 mps 741 mmHg 79%
    22:00 +7°C° 0 mm 4 mps 741 mmHg 79%
    23:00 +7°C° 0 mm 4 mps 741 mmHg 80%

    15 November, Friday

    Time Temperature Precipitation Wind Pressure Humidity
    00:00 +7°C° 0 mm 4 mps 741 mmHg 80%
    01:00 +6°C° 0.4 mm 4 mps 741 mmHg 81%
    02:00 +6°C° 0.4 mm 4 mps 740 mmHg 83%
    03:00 +5°C° 0.4 mm 4 mps 740 mmHg 84%
    04:00 +5°C° 0 mm 4 mps 740 mmHg 84%
    05:00 +4°C° 0 mm 4 mps 740 mmHg 84%
    06:00 +4°C° 0 mm 4 mps 740 mmHg 84%
    07:00 +5°C° 0 mm 4 mps 740 mmHg 78%
    08:00 +6°C° 0 mm 4 mps 740 mmHg 72%
    09:00 +6°C° 0 mm 4 mps 740 mmHg 66%
    10:00 +8°C° 0 mm 5 mps 740 mmHg 59%
    11:00 +9°C° 0 mm 5 mps 740 mmHg 52%
    12:00 +10°C° 0 mm 6 mps 740 mmHg 46%
    13:00 +11°C° 0 mm 6 mps 739 mmHg 45%
    14:00 +11°C° 0 mm 6 mps 739 mmHg 45%
    15:00 +11°C° 0 mm 6 mps 738 mmHg 45%
    16:00 +10°C° 0 mm 5 mps 738 mmHg 52%
    17:00 +10°C° 0 mm 4 mps 738 mmHg 58%
    18:00 +8°C° 0 mm 4 mps 738 mmHg 65%
    19:00 +8°C° 0 mm 3 mps 739 mmHg 69%
    20:00 +8°C° 0 mm 3 mps 739 mmHg 73%
    21:00 +7°C° 0 mm 3 mps 740 mmHg 76%
    22:00 +7°C° 0.1 mm 3 mps 740 mmHg 75%
    23:00 +5°C° 0.1 mm 3 mps 741 mmHg 75%

    16 November, Saturday

    Time Temperature Precipitation Wind Pressure Humidity
    00:00 +5°C° 0.1 mm 4 mps 741 mmHg 74%
    01:00 +5°C° 0 mm 4 mps 742 mmHg 70%
    02:00 +4°C° 0 mm 3 mps 742 mmHg 67%
    03:00 +4°C° 0 mm 3 mps 742 mmHg 64%
    04:00 +4°C° 0 mm 3 mps 743 mmHg 65%
    05:00 +3°C° 0 mm 3 mps 743 mmHg 66%
    06:00 +3°C° 0 mm 3 mps 744 mmHg 67%
    07:00 +4°C° 0 mm 3 mps 744 mmHg 64%
    08:00 +6°C° 0 mm 2 mps 745 mmHg 61%
    09:00 +7°C° 0 mm 2 mps 746 mmHg 58%
    10:00 +9°C° 0 mm 3 mps 746 mmHg 52%
    11:00 +10°C° 0 mm 3 mps 746 mmHg 45%
    12:00 +12°C° 0 mm 3 mps 746 mmHg 39%
    13:00 +13°C° 0 mm 4 mps 746 mmHg 39%
    14:00 +13°C° 0 mm 4 mps 745 mmHg 38%
    15:00 +13°C° 0 mm 4 mps 745 mmHg 38%
    16:00 +12°C° 0 mm 4 mps 745 mmHg 46%
    17:00 +11°C° 0 mm 3 mps 746 mmHg 54%
    18:00 +9°C° 0 mm 3 mps 746 mmHg 62%
    19:00 +9°C° 0 mm 3 mps 746 mmHg 69%
    20:00 +8°C° 0 mm 3 mps 746 mmHg 75%
    21:00 +7°C° 0 mm 3 mps 747 mmHg 81%
    22:00 +7°C° 0 mm 2 mps 747 mmHg 83%
    23:00 +7°C° 0 mm 2 mps 747 mmHg 85%
    Show more